Tracking 23726 objects as of 16-Oct-2021
HD Live streaming from Space Station
objects crossing your sky now

LEMUR 2 ALEXANDER

Track LEMUR 2 ALEXANDER now!
10-day predictions
LEMUR 2 ALEXANDER is classified as:


NORAD ID: 43559
Int'l Code: 2018-046F
Perigee: 462.3 km
Apogee: 469.8 km
Inclination: 51.6 °
Period: 93.8 minutes
Semi major axis: 6837 km
RCS: Unknown
Launch date: May 21, 2018
Source: United States (US)
Launch site: WALLOPS ISLAND (WLPIS)
aabbcc
Your satellite tracking list
Your tracking list is empty




NASA's NSSDC Master Catalog

Two Line Element Set (TLE):
1 43559U 18046F   21288.67623833  .00007162  00000-0  21395-3 0  9993
2 43559  51.6387 278.7509 0005473 243.5386 116.5035 15.35675416181639
Source of the keplerian elements: AFSPC